Location: Stone
(51.0000°N, 0.7667°E)
Time: 02:32:14
(UTC+00:00)

Daily predictions for brighter satellites

Satellite Brightness Start Highest point End
(mag) Time Altitude Azimuth Time Altitude Azimuth Time Altitude Azimuth
Cosmos 2369 Rocket 3.9 00:10:56 29° NNE 00:10:56 29° NNE 00:13:38 10° NNE
USA 234 4.2 00:03:23 10° ENE 00:17:11 - WNW 00:07:47 41° NE
Cosmos 2227 Rocket 3.7 00:50:46 10° NNW 00:54:07 32° N 00:54:07 32° N
SL-16 R/B 3.2 01:15:10 51° N 01:15:10 51° N 01:19:43 10° NNW
ATLAS 2AS CENTAUR R/B 4.4 01:11:34 10° WNW 01:18:29 32° N 01:25:04 10° ENE
CZ-2D R/B 3.5 01:15:25 10° NNE 01:18:48 35° NE 01:18:48 35° NE
Cosmos 1943 Rocket 4.1 01:21:05 20° NNW 01:21:05 20° NNW 01:25:02 10° NNE
Lacrosse 5 4.3 01:29:27 15° E 01:29:27 15° E 01:30:42 10° ENE
Resurs 1-4 Rocket 3.3 01:22:29 10° NNE 01:25:56 38° NE 01:25:56 38° NE
ATLAS 5 CENTAUR R/B 3.8 01:30:41 24° NE 01:30:41 24° NE 01:32:43 10° NE
Cosmos 2297 Rocket 4.0 01:37:20 10° NNW 01:39:22 23° NNW 01:39:22 23° NNW
Cosmos 2082 4.5 01:43:24 10° NNW 01:47:38 48° N 01:47:38 48° N
USA 234 3.4 01:45:51 10° E 01:52:19 69° NNE 01:55:07 36° NW
Cosmos 2369 Rocket 4.1 01:52:43 19° NW 01:53:08 19° NNW 01:57:09 10° NNE
CZ-4C R/B 4.3 01:51:44 17° NW 01:55:15 28° N 02:01:14 10° ENE
CZ-4B R/B 4.4 01:54:29 10° NNE 01:58:43 44° ENE 01:58:43 44° ENE
Cosmos 1697 Rocket 3.7 02:01:35 38° ESE 02:01:35 38° ESE 02:06:33 10° NE
NOSS 2-2 (C) 4.5 02:06:12 74° ENE 02:06:12 74° ENE 02:13:15 10° SE
Cosmos 1980 Rocket 3.8 02:05:37 23° ESE 02:06:42 24° ESE 02:11:10 10° NE
Cosmos 2263 Rocket 3.8 02:04:51 10° NNW 02:09:56 33° NE 02:15:00 10° ESE
Cosmos 2366 rocket 4.4 02:11:37 10° NNW 02:16:29 50° NW 02:16:29 50° NW
Cosmos 2218 Rocket 4.5 02:12:01 10° NNW 02:16:58 48° NW 02:16:58 48° NW
Gbstr 26 Del rocket 4.4 02:18:38 52° WNW 02:20:58 89° N 02:28:43 10° ESE
CZ-3B R/B 3.4 02:25:23 34° E 02:25:23 34° E 02:29:38 10° ENE
ADEOS II 2.2 02:20:19 10° NNE 02:25:24 71° E 02:25:24 71° E
Cosmos 1151 Rocket 4.0 02:26:32 44° NE 02:26:32 44° NE 02:29:54 10° NNE
Nadezhda 3 Rocket 4.3 02:26:57 49° SE 02:28:23 62° E 02:34:27 10° NNE
ARIANE 5 R/B 3.4 02:25:32 10° NNE 02:30:23 41° E 02:31:22 37° SE
Cosmos 1656 3.6 02:32:28 75° NNW 02:32:28 75° NNW 02:37:42 10° NNE
IDEFIX/ARIANE 42P 3.8 02:29:53 10° NNE 02:34:46 37° E 02:36:51 27° SE
IRS-1D 3.5 02:30:09 10° NNE 02:35:24 84° N 02:35:24 84° N
ASTEX 1 4.4 02:34:40 10° NNE 02:39:27 42° E 02:41:21 30° SE
Cosmos 2227 Rocket 4.3 02:35:03 10° NW 02:35:52 14° NW 02:35:52 14° NW
Cosmos 2181 Rocket 4.5 02:43:38 43° WNW 02:43:38 43° WNW 02:49:13 10° N
CBERS-1 3.9 02:39:34 10° NNE 02:44:31 77° NW 02:44:31 77° NW
IRS-1C 4.1 02:46:29 10° NNE 02:51:53 79° ESE 02:52:48 61° S
Meteor 1-20 Rocket 4.0 02:50:31 10° NNW 02:55:50 67° W 02:55:50 67° W
USA 307 3.4 02:57:59 53° ESE 02:57:59 53° ESE 03:01:36 10° ENE
SL-16 R/B 4.1 03:00:15 19° WNW 03:00:15 19° WNW 03:02:38 10° NW
Cosmos 1238 Rocket 4.2 02:51:10 10° N 02:57:50 73° ENE 03:04:00 10° SSE
SJ 16-02 2.4 02:53:39 10° NNW 02:57:54 44° ENE 03:02:07 10° SE
USA 267 3.4 02:51:57 10° ENE 02:58:28 64° SE 03:00:27 45° SSW
CZ-2C R/B 4.5 02:55:34 10° NE 02:58:54 29° E 03:00:12 23° SE
Cosmos 1782 3.2 02:59:09 60° E 02:59:09 60° E 03:03:08 10° NNE
Cosmos 44 4.1 02:59:36 35° SE 03:00:18 37° ESE 03:04:36 10° NE
CZ-2D R/B 3.1 02:55:49 10° N 03:00:07 31° NW 03:00:07 31° NW
USA 308 3.3 03:01:02 56° ESE 03:01:02 56° ESE 03:04:47 10° ENE
Cosmos 389 Rocket 3.5 03:02:26 45° E 03:02:26 45° E 03:05:40 10° NNE
USA 276 4.1 03:04:24 27° E 03:04:24 27° E 03:06:02 10° E
Cosmos 1606 4.5 03:04:58 23° NNW 03:04:58 23° NNW 03:06:42 10° N
Cosmos 2278 3.9 03:02:26 44° S 03:04:11 66° ESE 03:09:51 10° NE
Resurs 1-4 Rocket 3.3 03:02:51 10° N 03:07:00 27° NW 03:07:00 27° NW
ATLAS CENTAUR R/B 4.2 02:52:35 10° W 03:07:44 58° N 03:13:15 10° E
Lacrosse 5 1.7 03:08:39 67° SSW 03:09:17 80° SE 03:14:24 10° ENE
ERS-1 4.4 03:05:06 10° NNE 03:10:17 87° ESE 03:11:43 49° SSW
H-2A R/B 3.0 03:06:13 10° SE 03:10:28 51° ENE 03:14:49 10° N
ATLAS 2AS CENTAUR R/B 3.7 03:03:46 10° NW 03:11:15 49° NNE 03:18:11 10° ESE
Cosmos 2369 3.6 03:11:30 54° SW 03:12:53 79° WNW 03:18:40 10° NNE
ATLAS 5 CENTAUR R/B 3.1 03:12:12 25° NW 03:13:15 27° NNW 03:17:33 10° NE
SL-08 R/B 3.9 03:16:44 39° WNW 03:16:44 39° WNW 03:20:05 10° NNW
Landsat 5 4.0 03:18:34 10° SSE 03:23:04 67° ENE 03:27:30 10° N
ADEOS Rocket 4.0 03:18:06 10° SE 03:24:26 48° ENE 03:30:11 10° N
CZ-4B R/B 4.3 03:23:05 10° ESE 03:25:24 19° ENE 03:27:45 10° NNE
Cosmos 972 4.4 03:25:29 35° S 03:27:36 77° ESE 03:32:30 10° NNE
IRS-P3 4.3 03:25:48 10° N 03:30:58 51° WNW 03:32:20 41° WSW
Spot 4 Rocket 4.0 03:25:49 10° NNE 03:31:00 90° NNE 03:33:40 30° SSW
ERS-2 3.2 03:29:44 10° SE 03:33:15 46° ENE 03:36:47 10° N
MSX 3.9 03:27:27 10° NNE 03:33:17 76° ESE 03:37:58 16° S
USA 234 3.2 03:29:04 10° SE 03:35:28 59° SW 03:41:56 10° WNW
CZ-4B R/B 4.4 03:33:31 10° N 03:37:56 31° WNW 03:38:39 30° WNW
Cosmos 2360 4.3 03:37:38 37° WSW 03:39:50 61° NW 03:45:33 10° NNE
Cosmos 1536 4.3 03:37:08 10° N 03:40:59 38° ENE 03:44:48 10° SE
X-37B 2.4 03:42:02 22° SSE 03:42:02 22° SSE 03:43:48 10° SE
Cosmos 1898 Rocket 3.7 03:35:49 10° NNW 03:41:05 74° ENE 03:46:22 10° SSE
CSL-04 DEB 4.4 03:37:34 10° SSE 03:41:54 84° WSW 03:46:19 10° NNW
Iridium 2 3.6 03:42:11 55° WSW 03:42:33 59° W 03:46:17 10° N
IRIDIUM 104 4.4 03:39:02 10° N 03:44:17 78° E 03:49:30 10° S
Cosmos 1697 Rocket 3.1 03:43:20 33° W 03:45:19 45° NW 03:50:43 10° NNE
BREEZE M DEB (TANK) 4.4 03:27:46 10° WNW 03:45:33 54° SW 03:50:32 10° SE
CZ-4C R/B 4.1 03:39:27 10° NW 03:45:34 39° NNE 03:52:45 10° E
SL-8 R/B 4.3 03:45:53 35° SW 03:46:17 36° SSW 03:50:38 10° SE
Cosmos 1980 Rocket 2.2 03:47:24 30° SW 03:50:13 68° WNW 03:55:54 10° NNE
Cosmos 972 Rocket 4.4 03:49:27 33° W 03:50:50 40° WNW 03:55:32 10° N
Cosmos 1515 Rocket 4.0 03:50:06 37° WSW 03:51:01 42° WNW 03:55:16 10° N
IRIDIUM 114 4.3 03:48:10 10° N 03:53:27 89° W 03:58:40 10° S
Cosmos 2263 Rocket 2.2 03:48:39 10° NW 03:54:12 59° WSW 03:59:45 10° S
Cosmos 1934 Rocket 4.2 03:49:12 10° NNW 03:54:53 43° W 03:59:39 14° SSW
Cosmos 921 Rocket 2.8 03:52:49 26° SSW 03:55:09 89° ESE 03:59:23 10° NNE
Cosmos 2322 Rocket 3.4 03:51:48 10° S 03:57:06 42° ESE 04:02:26 10° NE
USA 32 4.2 03:53:46 10° N 03:59:02 74° E 04:04:16 10° SSE
Cosmos 1844 Rocket 3.8 03:54:42 10° NNW 04:00:08 46° NE 04:05:34 10° SE
Cosmos 1500 3.4 03:57:28 10° NNW 04:01:11 46° W 04:03:18 22° SSW
IRIDIUM 103 4.2 03:57:21 10° N 04:02:35 76° W 04:07:47 10° S
Cosmos 1812 2.6 04:01:20 20° SSW 04:03:56 76° WNW 04:07:48 10° N
Cosmos 1707 Rocket 4.1 04:00:11 10° S 04:04:25 59° E 04:08:44 10° NNE
ADEOS II 3.4 04:00:50 10° N 04:04:49 22° WNW 04:06:19 20° W
USA 305 2.9 04:03:31 30° W 04:05:33 74° NNW 04:09:48 10° ENE
SL-16 R/B 2.8 04:00:36 10° S 04:06:09 58° ESE 04:11:43 10° NE
Cosmos 1666 2.6 04:03:00 10° NNW 04:06:52 85° WSW 04:10:39 10° S
Cosmos 1937 Rocket 3.5 04:01:48 10° NNW 04:06:59 87° ENE 04:12:08 10° SSE
CZ-4C R/B 3.5 04:06:18 25° SSW 04:07:51 38° W 04:11:13 10° NNW
Cosmos 192 4.5 04:05:47 24° SW 04:08:35 55° WNW 04:13:26 10° NNE
ARIANE 5 R/B 3.3 04:04:50 10° N 04:09:25 34° WNW 04:11:42 23° WSW
USA 306 3.0 04:07:32 27° W 04:09:45 72° NNW 04:14:01 10° ENE
IDEFIX/ARIANE 42P 3.1 04:09:30 10° N 04:14:24 40° WNW 04:17:39 19° WSW
Meteor 1-10 Rocket 4.3 04:10:46 10° SSW 04:16:34 76° WNW 04:22:30 10° N
Cosmos 1153 Rocket 4.5 04:11:02 10° NNW 04:17:24 68° W 04:23:39 10° S
ASTEX 1 4.3 04:13:59 10° NNW 04:18:18 30° WNW 04:20:50 19° WSW
CZ-2C R/B 2.5 04:13:30 10° NNE 04:18:39 90° W 04:23:51 10° SSW
Cosmos 1733 Rocket 3.3 04:14:30 10° N 04:18:53 72° E 04:23:12 10° SSE
Cosmos 2228 Rocket 3.5 04:17:08 20° SW 04:19:48 40° WNW 04:24:01 10° N
IRIDIUM 106 4.4 04:15:46 10° NNW 04:20:52 54° W 04:25:56 10° SSW
Cosmos 1605 Rocket 4.4 04:15:42 10° NNW 04:21:41 43° W 04:27:39 10° SSW
SAR-Lupe-4 3.8 04:18:34 10° SSE 04:22:08 72° ENE 04:25:45 10° N
SL-4 R/B 3.7 04:21:31 10° SSW 04:25:35 32° SE 04:29:50 10° E
Cosmos 1869 Rocket 4.1 04:21:44 10° NNW 04:25:42 35° W 04:29:37 10° SSW
Meteor 1-5 Rocket 4.5 04:20:52 10° NNW 04:25:48 40° W 04:30:47 10° SSW
Cosmos 1763 Rocket 3.6 04:22:39 10° SSW 04:27:59 86° ESE 04:33:19 10° NNE
Cosmos 2016 Rocket 4.3 04:26:08 10° N 04:32:17 70° ENE 04:38:21 10° SSE
CZ-2C R/B 3.7 04:30:01 10° N 04:33:18 28° WNW 04:35:35 16° WSW
SAR-Lupe-1 4.0 04:30:43 10° SSE 04:34:18 87° WSW 04:37:54 10° NNW
SJ 16-02 2.4 04:32:41 10° NW 04:36:14 24° W 04:39:47 10° SSW
Meteor 1-4 Rocket 2.8 04:33:50 11° SW 04:36:57 43° WNW 04:40:21 10° N
Cosmos 389 Rocket 4.3 04:36:18 15° W 04:37:12 16° WNW 04:39:30 10° NNW
SJ-6F 4.5 04:33:04 10° NNE 04:37:13 83° ESE 04:41:18 10° SSW
USA 307 3.2 04:34:10 16° W 04:37:31 62° N 04:41:45 10° ENE
PSLV R/B 3.6 04:34:11 10° N 04:38:18 53° WNW 04:42:22 10° SSW
Cosmos 1862 Rocket 4.0 04:34:14 10° S 04:38:35 66° E 04:42:55 10° NNE
NOSS 3-4 (A) 3.8 04:31:44 10° NW 04:38:37 72° SW 04:46:16 10° SSE
NOSS 3-4 (C) 3.8 04:31:50 10° NW 04:38:43 72° SW 04:46:23 10° SSE
USA 276 2.2 04:36:45 17° W 04:39:04 69° S 04:42:16 10° ESE
USA 308 3.2 04:37:13 15° W 04:40:42 61° N 04:44:57 10° ENE
Cosmos 44 3.7 04:38:02 15° WSW 04:41:29 42° NW 04:46:02 10° NNE
USA 267 3.5 04:35:04 10° ENE 04:41:33 66° NNW 04:47:47 11° W
BREEZE-M DEB (TANK) 3.8 04:35:46 10° SW 04:41:50 31° S 04:44:32 10° ESE
BREEZE-M DEB (TANK) 3.6 04:40:44 15° WSW 04:43:23 68° SSE 04:52:29 10° E
PAYLOAD A 4.0 04:39:06 10° N 04:43:40 49° WNW 04:48:11 10° SW
Cosmos 1743 2.9 04:41:40 10° N 04:45:29 76° E 04:49:17 10° SSE
H-2A R/B 3.3 04:43:17 10° SW 04:46:43 22° W 04:50:12 10° NW
ERBS 2.2 04:43:59 14° WSW 04:46:51 88° NW 04:50:13 10° ENE
NOSS 3-3 (A) 4.1 04:44:08 11° WSW 04:49:54 65° NW 04:56:43 10° NE
NOSS 3-3 (C) 4.1 04:44:18 11° WSW 04:50:01 65° NW 04:56:48 10° NE
Cosmos 1725 Rocket 4.2 04:45:45 10° N 04:51:59 80° E 04:58:10 10° SSE
Lacrosse 5 2.5 04:47:50 11° W 04:52:35 47° NNW 04:57:30 10° ENE
Cosmos 540 Rocket 3.7 04:50:07 10° SSW 04:55:17 79° ESE 05:00:30 10° NNE
Cosmos 468 Rocket 4.2 04:50:58 10° SW 04:56:10 54° WNW 05:01:21 10° NNE
CZ-4B R/B 1.9 04:54:34 10° SSW 04:57:28 33° W 05:00:28 10° NNW
Cosmos 2100 Rocket 4.2 04:52:03 10° NNW 04:58:15 54° W 05:04:24 10° SSW
ATLAS 5 CENTAUR R/B 3.9 04:55:47 10° NW 04:59:27 21° N 05:03:33 10° NE
Cosmos 1727 Rocket 4.4 04:54:32 10° SW 05:00:36 46° WNW 05:06:40 10° N
ALOS 2.3 04:56:28 10° NNE 05:01:10 86° WNW 05:05:50 10° SSW
CZ-4B R/B 3.6 04:58:41 10° NNE 05:02:19 51° E 05:05:50 10° S
ATLAS 2AS CENTAUR R/B 2.9 04:55:07 10° NW 05:02:34 63° SW 05:09:24 10° SSE
Cosmos 1802 Rocket 4.0 04:57:14 10° NNW 05:03:21 64° W 05:09:30 10° S
CZ-4B R/B 4.1 04:59:36 10° NNE 05:03:55 89° WNW 05:08:22 10° SSW
Meteor 1-11 Rocket 4.4 04:58:55 10° NNW 05:04:00 32° W 05:08:58 10° SSW
ERS-2 3.6 05:04:33 10° SW 05:07:02 17° W 05:09:33 10° NW
Okean 1 3.7 05:03:23 10° S 05:07:24 71° E 05:11:28 10° NNE
ADEOS Rocket 3.6 05:03:55 10° SSW 05:10:05 37° W 05:15:44 10° NNW
Cosmos 1484 Rocket 2.9 05:06:48 10° N 05:10:45 62° WNW 05:14:41 10° SSW
